Simultaneous Nadir Overpasses (SNOs) Predictions

Prediction of SNOs between GOES-15 and METOP-C Satellite Orbit:

Table of predicted SNOs for the next 14.0 days since TLE Epoch: 1/8/2024
Index Date Time (GOES-15) GOES-15 Lat,Lon METOP-C Lat,Lon Distance(km) Time Diff (sec)
1 01/08/2024 17:26:44 0.05, 61.48 -0.04, 61.05 48.02 80
2 01/11/2024 05:24:55 -0.04, 61.50 -0.02, 61.50 3.07 80
3 01/13/2024 17:20:36 0.03, 61.58 0.09, 61.90 36.14 80
4 01/15/2024 05:39:28 -0.02, 61.60 0.94, 57.34 485.21 80
5 01/16/2024 05:21:28 -0.02, 61.62 -0.18, 62.34 81.92 80
6 01/17/2024 17:40:28 0.02, 61.66 -0.86, 57.74 446.48 80
7 01/18/2024 17:17:09 0.02, 61.69 0.25, 62.74 119.31 80
8 01/20/2024 05:36:00 -0.02, 61.73 0.75, 58.18 403.69 80
9 01/21/2024 05:18:01 -0.02, 61.75 -0.37, 63.17 162.88 80
